Showing default

YAOGAN 20C, 40111

Orbit data source: Space-Track

YAOGAN 20C, 40111 is a payload satellite owned by PLA GAD (CN) in LEO that was launched on Sat, 09 Aug 2014 UTC via a CHANG ZHENG 4C launch vehicle from the Jiuquan Satellite Launch Center, China (JSC). Payloads include a variety of satellites, spacecraft, and rockets equipped with specific instruments for various scientific and technological missions. These include communications satellites like Starlink; space stations such as the ISS; scientific satellites like the Hubble; Earth observation satellites from companies like Planet Labs, Umbra, and HawkEye 360; GPS; miniature CubeSats for education and research; and military/defense satellites.

Loading next visibility...
YAOGAN 20C details
Identifier
40111, 2014-047C
Orbit
LEO
Last TLE update13 hours ago
Origin
Flag of CNPLA GAD (CN / PRC)
ManufacturerCAST
MissionOperational Defense Sigint
Bus & MotorUnknown
Mass~500 kg wet, ~500 kg dry
Launch date (UTC)
2014-08-09 (10 years ago)
Launch vehicle
CHANG ZHENG 4C
Launch site
Jiuquan Satellite Launch Center, China (JSC)
Object type
Payload
Rocket body
Debris
Shape & HBRBox + 2 Pan, 1 m
Radar Cross Section0.446 m², Large (>1 m²)

Expand to show TLE details & history

TLE from 13 hours ago
0 YAOGAN 20C
1 40111U 14047C   24361.22903658  .00000133  00000-0  26534-3 0  9994
2 40111  63.3842 326.1012 0342866  12.3141 348.6004 13.45364359509913
Epoch: 2024-12-26T05:29Z
Definitive object data (Epoch: 2024-12-26T05:29:48.76Z)
Latitude0.00005°
Longitude148.43662°
Altitude840.482 km
Speed7.557 km/s
True Right ascension21h 44m 24s
True Declination0° 00' 00"
Sunlit
Object was in daylight at TLE epoch
Visualization TLE readout
Latitude56.55703°
Longitude-81.97311°
Altitude1,128.827 km
Speed7.279 km/s
Apparent Right ascension06h 06m 45s
Apparent Declination13° 31' 08"
Sunlit
Object is in full shadow
Visualization observer readout
Local Sidereal Time17:53:12
Azimuth355.904° N
Elevation-36.472°
Doppler factor1
Orbital elements
Apogee altitude1,344.187 km
Perigee altitude832.197 km
Semi-major axis7,466.329 km
Eccentricity0.0342866
Inclination63.3842°
RAAN326.1012°
Arg. of periapsis12.3141°
True anomaly347.78987°
Mean anomaly348.6004°
Eccentric anomaly348.19863°
Mean motion3.36421 °/min
BSTAR0.00026534
Orbital period107.01 mins
Loading maneuver chart data...
Loading historical data...
Loading historical data...
Loading historical data...
Loading historical data...
Loading historical data...
Loading historical data...
Loading historical data...

YAOGAN 20C Visibility forecast

Observer location: undefined°, undefined

Span
Click to sort rows by Start time (UTC) header in descending order
Start Az.
Max El. time (UTC)
Max El. Az.
Max El.
End time (UTC)
End Az.
10 mins2024-12-26 23:27:41.729Z198.427° SSW2024-12-26 23:32:41.729Z97.532° ESE41.769°2024-12-26 23:37:41.729Z40.155° NE
7 mins2024-12-27 01:20:41.729Z284.963° WNW2024-12-27 01:23:41.729Z327.007° NNW22.255°2024-12-27 01:27:41.729Z11.223° NNE
11 mins2024-12-27 06:58:41.729Z347.606° N2024-12-27 07:03:41.729Z43.393° NE28.247°2024-12-27 07:09:41.729Z101.314° ESE
13 mins2024-12-27 08:48:41.729Z318.527° NNW2024-12-27 08:54:41.729Z242.153° WSW42.32°2024-12-27 09:01:41.729Z162.575° S
|